Regional Weather Roundup
Issued by NWS Sioux Falls, SD

Home | Current Version | Previous Version | Graphics & Text | Print | Product List | Glossary On
Versions: 1 2 3 4 5 6 7 8 9 10 11 12 13 14 15 16 17 18 19 20 21 22 23 24 25 26 27 28 29 30 31 32 33 34 35 36 37 38 39 40 41 42 43 44 45 46 47 48 49 50
000
ASUS43 KFSD 221202
RWRFSD

WEATHER ROUNDUP FOR SE SOUTH DAKOTA/SW MINNESOTA/NW IOWA
NATIONAL WEATHER SERVICE SIOUX FALLS SD
600 AM CST SUN JAN 22 2017

NOTE: "FAIR" INDICATES FEW OR NO CLOUDS BELOW 12,000 FEET WITH NO
SIGNIFICANT WEATHER AND OR OBSTRUCTIONS TO VISIBILITY.


SDZ038>040-050-052>070-221300-
SOUTHEAST SOUTH DAKOTA

CITY           SKY/WX    TMP DP  RH WIND       PRES   REMARKS
BROOKINGS      CLOUDY    32  31  96 NW9       29.66R WCI  24
CHAMBERLAIN    CLEAR     22  22  98 W7        29.73S WCI  14
6HR MIN TEMP:  21; 6HR MAX TEMP:  26;

HURON          CLOUDY    26  26 100 NW15      29.72R FOG     WCI  14
6HR MIN TEMP:  26; 6HR MAX TEMP:  31;

MADISON        CLOUDY    32  32 100 NW15        N/A  WCI  22
MITCHELL       CLOUDY    29  28  96 W13       29.73R FOG     WCI  19
6HR MIN TEMP:  28; 6HR MAX TEMP:  32;

SIOUX FALLS    CLOUDY    33  31  92 NW8       29.68R WCI  26
6HR MIN TEMP:  32; 6HR MAX TEMP:  33;

WINNER         FAIR      24  21  88 NW7       29.74R WCI  16
YANKTON        PTCLDY    30  27  86 NW12      29.70R WCI  21
$$

MNZ071-072-080-081-089-090-097-098-221300-
SOUTHWEST MINNESOTA

CITY           SKY/WX    TMP DP  RH WIND       PRES   REMARKS
FAIRMONT       FOG       34  33  96 NW8       29.63R VSB 1/2 WCI  27
JACKSON        FOG       32  32 100 N7        29.63R VSB 3/4 WCI  26
LUVERNE        CLOUDY    32  30  93 NW6       29.66R WCI  26
MARSHALL       CLOUDY    33  33 100 NW8       29.66R FOG     WCI  26
6HR MIN TEMP:  33; 6HR MAX TEMP:  33;

MONTEVIDEO     CLOUDY    34  34 100 N6        29.67R FOG     WCI  29
PIPESTONE      CLOUDY    34  34 100 N12       29.64R FOG     WCI  25
REDWOOD FALLS  FOG       34  33  96 NW6       29.64R VSB 1/2 WCI  29
TRACY          FOG       34  34 100 NW8       29.65R VSB 1/2 WCI  27
WINDOM         FOG       34  34 100 NW8       29.63R VSB 3/4 WCI  27
WORTHINGTON    CLOUDY    33  32  96 NW10      29.64R FOG     WCI  25
$$

IAZ001>003-012>014-020>022-031-032-NEZ013-014-SDZ071-221300-
NORTHWEST IOWA

CITY           SKY/WX    TMP DP  RH WIND       PRES   REMARKS
CHEROKEE       CLOUDY    33  32  98 NW5       29.67R WCI  28
DENISON        CLOUDY    32  30  93 NW7       29.64R WCI  26
ESTHERVILLE    FOG       32  32 100 NW10      29.62R VSB 1   WCI  24
LE MARS        CLOUDY    34  30  86 NW7G13    29.68R WCI  28
ORANGE CITY    CLOUDY    32  30  93 NW12      29.65R WCI  23
SHELDON        CLOUDY    32  32 100 NW12      29.63R WCI  23
SIOUX CITY     CLOUDY    34  30  85 NW8       29.69R WCI  27
6HR MIN TEMP:  28; 6HR MAX TEMP:  34;

SPENCER          N/A    N/A N/A N/A MISG      29.64R
STORM LAKE     CLOUDY    32  30  93 NW8       29.65R WCI  25
$$

ABBREVIATIONS USED IN REMARKS
   TC - TEMPERATURE IN CELSIUS
  WCI - WIND CHILL INDEX
   HX - HEAT INDEX
  VSB - VISIBILITY





USA.gov is the U.S. government's official web portal to all federal, state and local government web resources and services.